Flag for Switzerland Weather past 2 weeks in Pratteln, Basel-Land, Switzerland

Now
91 °F

Sunny.


Feels Like: 91 °F
Forecast: 64 / 92 °F
Wind: 3 mph from North

Location: Bale-Mulhouse

Current Time: Jul 1, 2015 at 3:33:03 PM

Latest Report: Jul 1, 2015 at 3:00 PM


Visibility: 10 mi

Pressure: 30.04 "Hg

Humidity: 34%

Dew point: 59 °F

Location of PrattelnLocation

Historic Weather in Pratteln — Graph

°F

Pratteln temperature yesterday

Maximum temperature yesterday: 86 °F (at 4:00 PM)
Minimum temperature yesterday: 57 °F (at 5:30 AM)
Average temperature yesterday: 72 °F

Past Weeks' High & Low Weather Summary

 TemperatureHumidityPressure
High90 °F (Jul 1, 1:30 PM)100% (Jun 18, 4:30 AM)30.21 "Hg (Jun 18, 4:30 AM)
Low45 °F (Jun 24, 4:30 AM)26% (Jun 26, 3:00 PM)29.74 "Hg (Jun 22, 9:00 PM)
Average64 °F71%30.11 "Hg
* Reported Jun 16 2:00 PM — Jul 1 2:30 PM, Pratteln, Weather by CustomWeather, © 2015

Note: Actual official high and low records may vary slightly from our data, if they occured in-between our weather recording intervals... More about our weather records

Advertising

Pratteln weather history for previous 24 hours

 ConditionsComfort  
Time TempWeatherWind HumidityBarometerVisibility
2:30 PM
Wed, Jul 1
90 °FPassing clouds.5 mph36%30.04 "HgN/A
2:00 PM90 °FPassing clouds.5 mph36%30.07 "HgN/A
1:30 PM90 °FSunny.3 mph36%30.07 "Hg10 mi
1:00 PM88 °FSunny.3 mph40%30.07 "Hg10 mi
12:30 PM86 °FPassing clouds.3 mph40%30.07 "HgN/A
12:00 PM86 °FPassing clouds.3 mph40%30.09 "HgN/A
11:30 AM84 °FPassing clouds.6 mph43%30.09 "HgN/A
11:00 AM82 °FPassing clouds.6 mph48%30.09 "HgN/A
10:30 AM81 °FSunny.3 mph51%30.09 "Hg10 mi
10:00 AM79 °FSunny.2 mph54%30.09 "Hg10 mi
9:30 AM77 °FSunny.2 mph54%30.09 "Hg10 mi
9:00 AM73 °FSunny.2 mph65%30.09 "Hg10 mi
8:30 AM70 °FSunny.2 mph69%30.09 "Hg10 mi
8:00 AM68 °FSunny.No wind73%30.09 "Hg10 mi
7:30 AM64 °FSunny.1 mph83%30.09 "Hg10 mi
7:00 AM63 °FSunny.1 mph88%30.09 "Hg10 mi
6:30 AM59 °FClear.No wind100%30.09 "Hg10 mi
6:00 AM59 °FClear.1 mph94%30.09 "Hg10 mi
5:30 AM59 °FClear.3 mph94%30.09 "Hg10 mi
5:00 AM59 °FClear.No wind94%30.07 "Hg10 mi
4:30 AM61 °FClear.2 mph94%30.07 "Hg10 mi
4:00 AM59 °FClear.No wind94%30.07 "Hg10 mi
3:30 AM61 °FClear.2 mph94%30.07 "Hg10 mi
3:00 AM61 °FClear.No wind88%30.07 "Hg10 mi
2:30 AM61 °FClear.1 mph94%30.07 "Hg10 mi
2:00 AM63 °FClear.2 mph94%30.07 "Hg10 mi
1:30 AM63 °FClear.2 mph88%30.07 "Hg10 mi
1:00 AM63 °FClear.3 mph94%30.09 "Hg10 mi
12:30 AM64 °FClear.3 mph88%30.07 "Hg10 mi
12:00 AM66 °FClear.3 mph88%30.07 "Hg10 mi
11:30 PM
Tue, Jun 30
66 °FClear.2 mph88%30.07 "Hg10 mi
11:00 PM68 °FClear.3 mph88%30.07 "Hg10 mi
10:30 PM70 °FSunny.2 mph83%30.07 "Hg10 mi
10:00 PM73 °FSunny.3 mph74%30.07 "Hg10 mi
9:30 PM79 °FPassing clouds.3 mph58%30.04 "HgN/A
9:00 PM81 °FPassing clouds.5 mph54%30.04 "HgN/A
8:30 PM82 °FPassing clouds.5 mph55%30.04 "HgN/A
8:00 PM84 °FPassing clouds.6 mph48%30.04 "HgN/A
7:00 PM86 °FSunny.8 mph49%30.04 "Hg10 mi
6:30 PM86 °FPassing clouds.7 mph49%30.04 "HgN/A
6:00 PM86 °FPassing clouds.7 mph46%30.07 "HgN/A
5:00 PM86 °FPassing clouds.7 mph43%30.07 "HgN/A
4:30 PM86 °FPassing clouds.7 mph43%30.07 "HgN/A
4:00 PM86 °FPassing clouds.7 mph43%30.07 "HgN/A
3:00 PM84 °FPassing clouds.7 mph45%30.09 "HgN/A
Weather by CustomWeather, © 2015

See weather overviewHow to use our weather pages